Regional Weather Roundup
Issued by NWS Newport/Morehead, NC

Current Version | Previous Version | Graphics & Text | Print | Product List | Glossary Off
Versions: 1 2 3 4 5 6 7 8 9 10 11 12 13 14 15 16 17 18 19 20 21 22 23 24 25 26 27 28 29 30 31 32 33 34 35 36 37 38 39 40 41 42 43 44 45 46 47 48 49 50

000
ASUS42 KMHX 062112
RWRMHX
WEATHER ROUNDUP FOR EASTERN NORTH CAROLINA
NATIONAL WEATHER SERVICE NEWPORT/MOREHEAD CITY NC
500 PM EDT WED MAY 06 2015

NOTE: "FAIR" INDICATES FEW OR NO CLOUDS BELOW 12,000 FEET
WITH NO SIGNIFICANT WEATHER AND/OR OBSTRUCTIONS TO VISIBILITY

NCZ015>017-031-032-045>047-102-103-062200-
NORTH COAST

CITY           SKY/WX    TMP DP  RH WIND       PRES   REMARKS
EDENTON        CLOUDY    74  57  55 E8        30.17S
ELIZABETH CITY CLOUDY    72  56  57 SE12      30.18F
KITTY HAWK     CLOUDY    69  55  62 E3        30.17F
MANTEO         CLOUDY    70  57  64 E6        30.18F

$$

NCZ045>047-081-094-103-104-062200-
CENTRAL COAST

CITY           SKY/WX    TMP DP  RH WIND       PRES   REMARKS
FRISCO         CLOUDY    69  57  65 E7        30.17F
SWANQUARTER      N/A     72 N/A N/A E9        30.15R

$$

NCZ095-097-098-100-101-062200-
SOUTHERN COAST

CITY           SKY/WX    TMP DP  RH WIND       PRES   REMARKS
BEAUFORT       CLOUDY    72  59  63 NE7       30.14F
CEDAR ISLAND     N/A     72 N/A N/A NE10      30.18F
JACKSONVILLE   CLOUDY    73  56  54 E9        30.14F
PINEY ISLAND   CLOUDY   N/A N/A N/A E8        30.15F
WILMINGTON     CLOUDY    72  56  57 E12G23    30.14F


$$

NCZ011>013-027>030-043-044-078>080-089-090>093-098-062200-
COASTAL PLAIN

CITY           SKY/WX    TMP DP  RH WIND       PRES   REMARKS
AHOSKIE        PTSUNNY   76  56  48 SE8       30.17S
CLINTON        PTSUNNY   79  52  39 NE5       30.14S
ELIZABETHTOWN  PTSUNNY   79  53  40 E7        30.12F
GOLDSBORO      PTSUNNY   80  53  38 E9        30.12F
GREENVILLE     CLOUDY    77  57  50 SE8       30.17S
HAVELOCK       CLOUDY    73  57  57 E9        30.16F
KENANSVILLE    CLOUDY    76  51  40 E7        30.15S
KINSTON        CLOUDY    77  48  36 E9        30.16S
NEW BERN       CLOUDY    73  58  59 SE8       30.17S
RICHLANDS      CLOUDY    73  57  56 SE7       30.15S
ROCKY MOUNT    PTSUNNY   78  57  48 VRB6      30.15F
WASHINGTON     CLOUDY    73  56  55 SE7       30.17S
WHITEVILLE     CLOUDY    76  55  48 E8        30.12S

$$

AMZ130-135-150-152-154-156-158-170-250-252-270-ANZ085-086-088-633-658-670-062200-
MARINE OBSERVATIONS

STATION/POSITION TIME  TEMP    WIND        PRES    WAVE   SWELL
                       AIR SEA DIR/SP/G            HT/PER HT/PER
                 (UTC) (F)     (DEG/KT/KT) (MB)    (FT/S) (FT/S)
CHESAPEAKE LIGHT 2000   65     160/ 14/ 14 1022.6
64 E VA BEACH    2050   66 63  140/  2/  2 1022.1    2/ 7   2/ 7
DUCK             2000   65 51  100/ 11/ 11 1021.4
2 E DUCK         2011      58                N/A     2/11
OREGON INLET     2000   68 70   50/  8/ 10 1022.2
13E OREGON INLT  2100      64                N/A     2/ 7
HATTERAS CG      2000   71 68  100/  5/  9 1021.4
DIAMOND BUOY     2050   72 74  100/ 14/ 16 1021.3    4/ 8   3/ 8
CAPE LOOKOUT     2100   69      80/ 10/ 11 1020.3
BEAUFORT LAB     2000           90/  9/ 12 1020.3
27 SE WRIGHTSVLE 2000   68 71   70/ 16/ 19   N/A
5 SE WRIGHTSVLE  2008   69 68   60/ 14/ 17 1020.7
225 S CAPE HAT   2050   70 70  100/ 16/ 19 1016.4   10/ 8   5/11
41 SE CHARLESTON 2050   71 73   30/ 21/ 25 1017.6    8/ 8   3/15

$$


USA.gov is the U.S. government's official web portal to all federal, state and local government web resources and services.